Regional Weather Roundup
Issued by NWS Wakefield, VA

Home | Current Version | Previous Version | Text Only | Print | Product List | Glossary On
Versions: 1 2 3 4 5 6 7 8 9 10 11 12 13 14 15 16 17 18 19 20 21 22 23 24 25 26 27 28 29 30 31 32 33 34 35 36 37 38 39 40 41 42 43 44 45 46 47 48 49 50
000
ASUS41 KAKQ 242315
RWRAKQ

REGIONAL WEATHER ROUNDUP
NATIONAL WEATHER SERVICE WAKEFIELD VA
600 PM EST FRI NOV 24 2017

Note: "fair" indicates few or no clouds below 12,000 feet with no
significant weather and/or obstructions to visibility. * = Denotes
station may not report precipitation (e.g., rain,snow,etc.),
thunder or fog.

VAZ042-051-052>054-056-250000-
NORTHERN VIRGINIA

CITY           SKY/WX    TMP DP  RH WIND       PRES   REMARKS
WASH NATIONAL  CLEAR     47  35  63 S6        29.97S
DULLES         CLEAR     46  29  51 SE6       29.96R
FORT BELVOIR   CLEAR     43  30  60 CALM      29.97R
QUANTICO       CLEAR     48  37  65 S7        29.98S
FREDERICKSBRG* CLEAR     41  32  70 S6        29.97R
STAFFORD*      CLEAR     42  29  61 CALM      30.01R
WARRENTON      NOT AVBL
CULPEPER*      CLEAR     40  28  62 CALM      29.97S
MANASSAS*      CLEAR     40  29  64 CALM      29.97R
LEESBURG*      CLEAR     50  32  50 S9        29.96R
WINCHESTER     CLEAR     43  27  52 SE3       29.91S
FRONT ROYAL*   CLEAR     46  27  46 CALM      29.90S
LURAY*         CLEAR     50  27  40 S5        29.91S
$$

VAZ048-049-060>072-079>083-250000-
CENTRAL AND SOUTH CENTRAL VIRGINIA

CITY           SKY/WX    TMP DP  RH WIND       PRES   REMARKS
RICHMOND       CLEAR     46  28  49 CALM      29.98R
CHESTERFIELD*  NOT AVBL
PETERSBURG*    CLEAR     34  19  55 CALM      29.99R
HANOVER        CLEAR     41  32  70 CALM      29.99S
TAPPAHANNOCK*    N/A    N/A N/A N/A MISG        N/A
QUINTON*       FAIR      46  30  54 CALM      29.98R
CHARLOTTSVILLE CLEAR     49  29  46 SE3       29.95S
GORDONSVILLE*  CLEAR     41  31  68 CALM      29.96S
ORANGE*        CLEAR     41  28  60 CALM      29.95S
LOUISA*        CLEAR     36  30  80 SE5       30.00S
BUMPASS*       FAIR      39  32  75 CALM      29.97S
FARMVILLE*     CLEAR     46  32  59 CALM      29.96S
CREWE*         FAIR      40  30  65 CALM      29.97S
FORT PICKETT*  FAIR      44  27  51 CALM      29.98R
CHASE CITY*    FAIR      42  28  58 CALM      29.98R
CLARKSVILLE*   FAIR      41  32  70 CALM      29.97S
SOUTH HILL*    CLEAR     39  35  88 CALM      30.03S
LAWRENCEVILLE* FAIR      43  30  61 CALM      29.98R
EMPORIA*       CLEAR     39  34  81 CALM      30.00R
$$

VAZ088>098-250000-
SOUTHEAST VIRGINIA

CITY           SKY/WX    TMP DP  RH WIND       PRES   REMARKS
NORFOLK        CLEAR     45  39  79 CALM      30.00R
VIRGINIA BEACH PTCLDY    41  35  79 CALM      29.99S
NORFOLK NAVAL  PTCLDY    42  37  82 CALM      30.01S
WEST POINT*    CLEAR     41  33  73 E6        30.01S
SALUDA*        FAIR      41  35  80 CALM      30.00S
NEWPORT NEWS   CLEAR     39  35  86 NE3       30.00S
LANGLEY AFB    CLEAR     40  36  83 CALM      29.99F
FORT EUSTIS    CLEAR     42  36  77 E3        29.97S
WILLIAMSBURG*  CLEAR     45  36  70 CALM      30.00S
HR EXEC AP*    NOT AVBL
FRANKLIN*      CLEAR     43  35  72 E5        29.99F HAZE
US460-WAKEFLD  CLEAR     43  34  70 E3        29.99S
$$

VAZ020-022-025-037-045-250000-
WEST CENTRAL AND SOUTHWEST VIRGINIA

CITY           SKY/WX    TMP DP  RH WIND       PRES   REMARKS
STAUNTON*      CLEAR     43  26  50 S3        29.94S
WAYNESBORO*    CLEAR     44  24  44 CALM      29.93R
HOT SPRINGS VA CLEAR     44  10  24 S5        29.93R
LYNCHBURG      CLEAR     43  28  55 CALM      29.96R
DANVILLE       CLEAR     40  32  73 CALM      29.96S
SOUTH BOSTON*  FAIR      45  23  41 CALM      29.97R
MARTINSVILLE   CLEAR     42  30  62 CALM      29.98R
ROANOKE        CLEAR     51  24  34 SE6       29.96R
BLACKSBURG     CLEAR     46  28  48 SE6       29.96S
DUBLIN*        CLEAR     50  24  36 CALM      29.93S
MARION*        CLEAR     48  29  48 CALM      29.95R
HILLSVILLE*    CLEAR     47  28  46 S6        29.92S
RICHLANDS*     FAIR      52  19  28 W5        29.92S
WISE*          CLEAR     46  32  57 SW6       29.92S
ABINGDON*      CLEAR     50  26  40 CALM      29.92S
$$

MDZ021>025-VAZ099-100-250000-
SOUTHERN MARYLAND AND THE DELMARVA PENINSULA

CITY           SKY/WX    TMP DP  RH WIND       PRES   REMARKS
PATUXENT RIVER CLEAR     44  33  65 S3        29.99S
BAY BRIDGE APT CLEAR     45  32  61 SE5       29.98S
LEONARDTOWN    CLEAR     43  30  61 CALM      30.00S
DOVER          CLEAR     43  37  79 SE7       29.98F
GEORGETOWN     CLEAR     41  31  67 SE6       30.00S
EASTON         CLEAR     45  32  61 CALM      30.02F
CAMBRIDGE      CLEAR     41  34  75 CALM      29.99S
SALISBURY      CLEAR     40  33  76 SW3       30.00S
OCEAN CITY     CLEAR     44  39  82 CALM      30.01F
WALLOPS ISLAND CLEAR     42  37  82 CALM      30.01S
ACCOMACK*      CLEAR     40  37  86 CALM      30.00S
$$

NCZ012>017-030>032-250000-
NORTH CENTRAL AND EASTERN NORTH CAROLINA

CITY           SKY/WX    TMP DP  RH WIND       PRES   REMARKS
ROANOKE RAPIDS FAIR      43  32  65 CALM      29.98S
RALEIGH        PTCLDY    45  27  49 CALM      29.97R
ELIZABETH CITY CLEAR     47  42  83 N6        29.99S
AHOSKIE*       CLEAR     42  34  73 CALM      29.99S
EDENTON*       CLEAR     47  40  75 CALM      30.00R
CURRITUCK*     CLEAR     46  41  82 CALM      30.00S
KILL DEVIL HLS PTCLDY    52  45  76 N3        29.96S
MANTEO         CLEAR     51  46  83 NE9       29.97F
CAPE HATTERAS  CLEAR     55  51  86 N9G17     29.93R
TARBORO*       NOT AVBL
GOLDSBORO      CLEAR     46  33  62 CALM      29.96R
WASHINGTON     CLOUDY    48  39  72 NE3       29.99R
GREENVILLE     CLEAR     45  34  65 CALM      30.00S
NEW BERN       PTCLDY    51  42  71 NE9       29.96F
WILMINGTON     CLOUDY    55  38  52 N7        29.95R
$$

VAZ048-250000-
ELSEWHERE

CITY           SKY/WX    TMP DP  RH WIND       PRES   REMARKS
HARRISBURG PA  CLEAR     44  27  51 NE3       29.93S
BALTIMORE      PTCLDY    45  33  63 SE3       29.96S
ANNAPOLIS      CLEAR     46  37  71 S7        29.97F
ANDREWS AFB    CLEAR     45  24  43 S5        29.96S
PHILADELPHIA   CLEAR     47  29  49 S7        29.99R
HENDERSON NC   CLEAR     40  31  68 CALM      29.97S
GREENSBORO     PTCLDY    50  31  48 CALM      29.95R
ROCKY MOUNT    CLEAR     40  34  79 CALM      29.98S
$$

VAZ100-250000-
MARINE

STATION/POSITION TIME  TEMP    WIND        PRES    WAVE   SWELL
                       AIR SEA DIR/SP/G            HT/PER HT/PER
                 (UTC) (F)     (DEG/KT/KT) (MB)    (FT/S) (FT/S)
BRANDYWINE LGT   2236   49                 1016.0F
CAPE MAY NJ      2236   45 50              1015.3F
LEWES DE         2236   45 49              1015.5F
15NM E FENWICK I 2250   50 57  110/  6/  8 1016.6S   3/ 9   3/ 9
OCEAN-CITY-INLET 2236   48 53              1016.5S
WACHAPREAGUE VA  2236   43 49              1015.9S
THOMAS POINT MD  2300   49 51  170/ 13/ 14   N/A
GOOSES REEF MD   2250   48     200/ 12/ 14 1011.3F
COVE POINT MD    2236   48                 1016.1R
SOLOMONS ISLAND  2236   47 53              1015.0S
BISHOPS HEAD MD  2236   46 48              1015.8F
PINEY POINT MD   2224          170/ 11/ 12   N/A
POTOMAC MD       2250   49     170/ 10/ 12 1014.9S
CAMBRIDGE MD     2236   44 49              1016.1F
LEWISETTA VA     2236   46 50              1015.4S
RAPPAHANNOCK LGT 2236                      1016.5S
STINGRAY PT      2250   48     160/  6/  8 1016.1S
YORK RVR RNG VA  2236   48                 1016.4R
YORKTOWN VA      2236   46 53              1015.6S
JAMESTOWN VA     2250          120/  6/  8   N/A
DOMINION TERM VA 2236   49                 1015.9S
KIPTOPEKE VA     2236      53                N/A
CAPE HENRY VA    2236   51                   N/A
WILLOUBY STN VA  2236   49                 1015.6S
S CRANEY ISL VA  2236   49                 1015.6S
CAPE HENRY BUOY  2300      59                N/A     3/10   2/11
1ST LANDING BUOY 2250   50     100/  6/  8 1015.9S
CAPE CHARLES BUO 2251      58                N/A     3/ 9   2/11
64NM E OF VA BCH 2250   56 61   50/ 10/ 14 1015.5F   4/10   5/10
DUCK PIER NC     2236   54 57              1014.7F
44100 DUCK FRF   2245      60                N/A     4/ 9   2/11
44056 DUCK FRF   2300      59                N/A     4/10   2/11
OREGON INLET NC  2236   56 55              1014.2F
HATTERAS NC      2236   56 58              1013.3R
DIAMOND SHLS NC  2300   63 70   10/ 21/ 25 1012.7
CAPE LOOKOUT NC  2300           10/ 15/ 18 1013.8R
$$



USA.gov is the U.S. government's official web portal to all federal, state and local government web resources and services.